Year,Month,Day,Hour,Minute,Value (Times are PST for insolation in W/m^2)
2015,03,11,00,00,0.00
2015,03,11,00,01,0.00
2015,03,11,00,02,0.00
2015,03,11,00,03,0.00
2015,03,11,00,04,0.00
2015,03,11,00,05,0.00
2015,03,11,00,06,0.00
2015,03,11,00,07,0.00
2015,03,11,00,08,0.00
2015,03,11,00,09,0.00
2015,03,11,00,10,0.00
2015,03,11,00,11,0.00
2015,03,11,00,12,0.00
2015,03,11,00,13,0.00
2015,03,11,00,14,0.00
2015,03,11,00,15,0.00
2015,03,11,00,16,0.00
2015,03,11,00,17,0.00
2015,03,11,00,18,0.00
2015,03,11,00,19,0.00
2015,03,11,00,20,0.00
2015,03,11,00,21,0.00
2015,03,11,00,22,0.00
2015,03,11,00,23,0.00
2015,03,11,00,24,0.00
2015,03,11,00,25,0.00
2015,03,11,00,26,0.00
2015,03,11,00,27,0.00
2015,03,11,00,28,0.00
2015,03,11,00,29,0.00
2015,03,11,00,30,0.00
2015,03,11,00,31,0.00
2015,03,11,00,32,0.00
2015,03,11,00,33,0.00
2015,03,11,00,34,0.00
2015,03,11,00,35,0.00
2015,03,11,00,36,0.00
2015,03,11,00,37,0.00
2015,03,11,00,38,0.00
2015,03,11,00,39,0.00
2015,03,11,00,40,0.00
2015,03,11,00,41,0.00
2015,03,11,00,42,0.00
2015,03,11,00,43,0.00
2015,03,11,00,44,0.00
2015,03,11,00,45,0.00
2015,03,11,00,46,0.00
2015,03,11,00,47,0.00
2015,03,11,00,48,0.00
2015,03,11,00,49,0.00
2015,03,11,00,50,0.00
2015,03,11,00,51,0.00
2015,03,11,00,52,0.00
2015,03,11,00,53,0.00
2015,03,11,00,54,0.00
2015,03,11,00,55,0.00
2015,03,11,00,56,0.00
2015,03,11,00,57,0.00
2015,03,11,00,58,0.00
2015,03,11,00,59,0.00
2015,03,11,01,00,0.00
2015,03,11,01,01,0.00
2015,03,11,01,02,0.00
2015,03,11,01,03,0.00
2015,03,11,01,04,0.00
2015,03,11,01,05,0.00
2015,03,11,01,06,0.00
2015,03,11,01,07,0.00
2015,03,11,01,08,0.00
2015,03,11,01,09,0.00
2015,03,11,01,10,0.00
2015,03,11,01,11,0.00
2015,03,11,01,12,0.00
2015,03,11,01,13,0.00
2015,03,11,01,14,0.00
2015,03,11,01,15,0.00
2015,03,11,01,16,0.00
2015,03,11,01,17,0.00
2015,03,11,01,18,0.00
2015,03,11,01,19,0.00
2015,03,11,01,20,0.00
2015,03,11,01,21,0.00
2015,03,11,01,22,0.00
2015,03,11,01,23,0.00
2015,03,11,01,24,0.00
2015,03,11,01,25,0.00
2015,03,11,01,26,0.00
2015,03,11,01,27,0.00
2015,03,11,01,28,0.00
2015,03,11,01,29,0.00
2015,03,11,01,30,0.00
2015,03,11,01,31,0.00
2015,03,11,01,32,0.00
2015,03,11,01,33,0.00
2015,03,11,01,34,0.00
2015,03,11,01,35,0.00
2015,03,11,01,36,0.00
2015,03,11,01,37,0.00
2015,03,11,01,38,0.00
2015,03,11,01,39,0.00
2015,03,11,01,40,0.00
2015,03,11,01,41,0.00
2015,03,11,01,42,0.00
2015,03,11,01,43,0.00
2015,03,11,01,44,0.00
2015,03,11,01,45,0.00
2015,03,11,01,46,0.00
2015,03,11,01,47,0.00
2015,03,11,01,48,0.00
2015,03,11,01,49,0.00
2015,03,11,01,50,0.00
2015,03,11,01,51,0.00
2015,03,11,01,52,0.00
2015,03,11,01,53,0.00
2015,03,11,01,54,0.00
2015,03,11,01,55,0.00
2015,03,11,01,56,0.00
2015,03,11,01,57,0.00
2015,03,11,01,58,0.00
2015,03,11,01,59,0.00
2015,03,11,02,00,0.00
2015,03,11,02,01,0.00
2015,03,11,02,02,0.00
2015,03,11,02,03,0.00
2015,03,11,02,04,0.00
2015,03,11,02,05,0.00
2015,03,11,02,06,0.00
2015,03,11,02,07,0.00
2015,03,11,02,08,0.00
2015,03,11,02,09,0.00
2015,03,11,02,10,0.00
2015,03,11,02,11,0.00
2015,03,11,02,12,0.00
2015,03,11,02,13,0.00
2015,03,11,02,14,0.00
2015,03,11,02,15,0.00
2015,03,11,02,16,0.00
2015,03,11,02,17,0.00
2015,03,11,02,18,0.00
2015,03,11,02,19,0.00
2015,03,11,02,20,0.00
2015,03,11,02,21,0.00
2015,03,11,02,22,0.00
2015,03,11,02,23,0.00
2015,03,11,02,24,0.00
2015,03,11,02,25,0.00
2015,03,11,02,26,0.00
2015,03,11,02,27,0.00
2015,03,11,02,28,0.00
2015,03,11,02,29,0.00
2015,03,11,02,30,0.00
2015,03,11,02,31,0.00
2015,03,11,02,32,0.00
2015,03,11,02,33,0.00
2015,03,11,02,34,0.00
2015,03,11,02,35,0.00
2015,03,11,02,36,0.00
2015,03,11,02,37,0.00
2015,03,11,02,38,0.00
2015,03,11,02,39,0.00
2015,03,11,02,40,0.00
2015,03,11,02,41,0.00
2015,03,11,02,42,0.00
2015,03,11,02,43,0.00
2015,03,11,02,44,0.00
2015,03,11,02,45,0.00
2015,03,11,02,46,0.00
2015,03,11,02,47,0.00
2015,03,11,02,48,0.00
2015,03,11,02,49,0.00
2015,03,11,02,50,0.00
2015,03,11,02,51,0.00
2015,03,11,02,52,0.00
2015,03,11,02,53,0.00
2015,03,11,02,54,0.00
2015,03,11,02,55,0.00
2015,03,11,02,56,0.00
2015,03,11,02,57,0.00
2015,03,11,02,58,0.00
2015,03,11,02,59,0.00
2015,03,11,03,00,0.00
2015,03,11,03,01,0.00
2015,03,11,03,02,0.00
2015,03,11,03,03,0.00
2015,03,11,03,04,0.00
2015,03,11,03,05,0.00
2015,03,11,03,06,0.00
2015,03,11,03,07,0.00
2015,03,11,03,08,0.00
2015,03,11,03,09,0.00
2015,03,11,03,10,0.00
2015,03,11,03,11,0.00
2015,03,11,03,12,0.00
2015,03,11,03,13,0.00
2015,03,11,03,14,0.00
2015,03,11,03,15,0.00
2015,03,11,03,16,0.00
2015,03,11,03,17,0.00
2015,03,11,03,18,0.00
2015,03,11,03,19,0.00
2015,03,11,03,20,0.00
2015,03,11,03,21,0.00
2015,03,11,03,22,0.00
2015,03,11,03,23,0.00
2015,03,11,03,24,0.00
2015,03,11,03,25,0.00
2015,03,11,03,26,0.00
2015,03,11,03,27,0.00
2015,03,11,03,28,0.00
2015,03,11,03,29,0.00
2015,03,11,03,30,0.00
2015,03,11,03,31,0.00
2015,03,11,03,32,0.00
2015,03,11,03,33,0.00
2015,03,11,03,34,0.00
2015,03,11,03,35,0.00
2015,03,11,03,36,0.00
2015,03,11,03,37,0.00
2015,03,11,03,38,0.00
2015,03,11,03,39,0.00
2015,03,11,03,40,0.00
2015,03,11,03,41,0.00
2015,03,11,03,42,0.00
2015,03,11,03,43,0.00
2015,03,11,03,44,0.00
2015,03,11,03,45,0.00
2015,03,11,03,46,0.00
2015,03,11,03,47,0.00
2015,03,11,03,48,0.00
2015,03,11,03,49,0.00
2015,03,11,03,50,0.00
2015,03,11,03,51,0.00
2015,03,11,03,52,0.00
2015,03,11,03,53,0.00
2015,03,11,03,54,0.00
2015,03,11,03,55,0.00
2015,03,11,03,56,0.00
2015,03,11,03,57,0.00
2015,03,11,03,58,0.00
2015,03,11,03,59,0.00
2015,03,11,04,00,0.00
2015,03,11,04,01,0.00
2015,03,11,04,02,0.00
2015,03,11,04,03,0.00
2015,03,11,04,04,0.00
2015,03,11,04,05,0.00
2015,03,11,04,06,0.00
2015,03,11,04,07,0.00
2015,03,11,04,08,0.00
2015,03,11,04,09,0.00
2015,03,11,04,10,0.00
2015,03,11,04,11,0.00
2015,03,11,04,12,0.00
2015,03,11,04,13,0.00
2015,03,11,04,14,0.00
2015,03,11,04,15,0.00
2015,03,11,04,16,0.00
2015,03,11,04,17,0.00
2015,03,11,04,18,0.00
2015,03,11,04,19,0.00
2015,03,11,04,20,0.00
2015,03,11,04,21,0.00
2015,03,11,04,22,0.00
2015,03,11,04,23,0.00
2015,03,11,04,24,0.00
2015,03,11,04,25,0.00
2015,03,11,04,26,0.00
2015,03,11,04,27,0.00
2015,03,11,04,28,0.00
2015,03,11,04,29,0.00
2015,03,11,04,30,0.00
2015,03,11,04,31,0.00
2015,03,11,04,32,0.00
2015,03,11,04,33,0.00
2015,03,11,04,34,0.00
2015,03,11,04,35,0.00
2015,03,11,04,36,0.00
2015,03,11,04,37,0.00
2015,03,11,04,38,0.00
2015,03,11,04,39,0.00
2015,03,11,04,40,0.00
2015,03,11,04,41,0.00
2015,03,11,04,42,0.00
2015,03,11,04,43,0.00
2015,03,11,04,44,0.00
2015,03,11,04,45,0.00
2015,03,11,04,46,0.00
2015,03,11,04,47,0.00
2015,03,11,04,48,0.00
2015,03,11,04,49,0.00
2015,03,11,04,50,0.00
2015,03,11,04,51,0.00
2015,03,11,04,52,0.00
2015,03,11,04,53,0.00
2015,03,11,04,54,0.00
2015,03,11,04,55,0.00
2015,03,11,04,56,0.00
2015,03,11,04,57,0.00
2015,03,11,04,58,0.00
2015,03,11,04,59,0.00
2015,03,11,05,00,0.00
2015,03,11,05,01,0.00
2015,03,11,05,02,0.00
2015,03,11,05,03,0.00
2015,03,11,05,04,0.00
2015,03,11,05,05,0.00
2015,03,11,05,06,0.00
2015,03,11,05,07,0.00
2015,03,11,05,08,0.00
2015,03,11,05,09,0.00
2015,03,11,05,10,0.00
2015,03,11,05,11,0.00
2015,03,11,05,12,0.00
2015,03,11,05,13,0.00
2015,03,11,05,14,0.00
2015,03,11,05,15,0.00
2015,03,11,05,16,0.00
2015,03,11,05,17,0.00
2015,03,11,05,18,0.00
2015,03,11,05,19,0.00
2015,03,11,05,20,0.00
2015,03,11,05,21,0.00
2015,03,11,05,22,0.00
2015,03,11,05,23,0.00
2015,03,11,05,24,0.00
2015,03,11,05,25,0.00
2015,03,11,05,26,0.00
2015,03,11,05,27,0.00
2015,03,11,05,28,0.00
2015,03,11,05,29,0.00
2015,03,11,05,30,0.00
2015,03,11,05,31,0.00
2015,03,11,05,32,0.00
2015,03,11,05,33,0.00
2015,03,11,05,34,0.00
2015,03,11,05,35,0.00
2015,03,11,05,36,0.00
2015,03,11,05,37,0.00
2015,03,11,05,38,0.00
2015,03,11,05,39,0.00
2015,03,11,05,40,0.00
2015,03,11,05,41,0.00
2015,03,11,05,42,0.00
2015,03,11,05,43,0.00
2015,03,11,05,44,0.00
2015,03,11,05,45,0.00
2015,03,11,05,46,0.00
2015,03,11,05,47,0.00
2015,03,11,05,48,0.00
2015,03,11,05,49,0.00
2015,03,11,05,50,0.00
2015,03,11,05,51,0.00
2015,03,11,05,52,0.00
2015,03,11,05,53,0.00
2015,03,11,05,54,0.00
2015,03,11,05,55,0.00
2015,03,11,05,56,0.00
2015,03,11,05,57,0.00
2015,03,11,05,58,0.00
2015,03,11,05,59,0.00
2015,03,11,06,00,0.00
2015,03,11,06,01,0.00
2015,03,11,06,02,0.00
2015,03,11,06,03,0.00
2015,03,11,06,04,0.00
2015,03,11,06,05,0.00
2015,03,11,06,06,0.00
2015,03,11,06,07,0.00
2015,03,11,06,08,0.00
2015,03,11,06,09,0.00
2015,03,11,06,10,0.00
2015,03,11,06,11,0.00
2015,03,11,06,12,0.00
2015,03,11,06,13,0.00
2015,03,11,06,14,0.00
2015,03,11,06,15,0.00
2015,03,11,06,16,0.00
2015,03,11,06,17,0.00
2015,03,11,06,18,0.00
2015,03,11,06,19,0.00
2015,03,11,06,20,0.00
2015,03,11,06,21,0.00
2015,03,11,06,22,0.00
2015,03,11,06,23,0.00
2015,03,11,06,24,0.00
2015,03,11,06,25,0.00
2015,03,11,06,26,0.00
2015,03,11,06,27,0.00
2015,03,11,06,28,0.00
2015,03,11,06,29,0.00
2015,03,11,06,30,0.00
2015,03,11,06,31,0.00
2015,03,11,06,32,0.00
2015,03,11,06,33,0.00
2015,03,11,06,34,0.00
2015,03,11,06,35,0.00
2015,03,11,06,36,0.00
2015,03,11,06,37,0.00
2015,03,11,06,38,0.00
2015,03,11,06,39,0.00
2015,03,11,06,40,0.00
2015,03,11,06,41,0.00
2015,03,11,06,42,0.00
2015,03,11,06,43,0.00
2015,03,11,06,44,0.00
2015,03,11,06,45,0.00
2015,03,11,06,46,0.00
2015,03,11,06,47,0.00
2015,03,11,06,48,0.00
2015,03,11,06,49,0.00
2015,03,11,06,50,0.00
2015,03,11,06,51,0.00
2015,03,11,06,52,0.00
2015,03,11,06,53,0.00
2015,03,11,06,54,0.00
2015,03,11,06,55,0.00
2015,03,11,06,56,0.00
2015,03,11,06,57,0.00
2015,03,11,06,58,0.00
2015,03,11,06,59,0.00
2015,03,11,07,00,0.00
2015,03,11,07,01,0.00
2015,03,11,07,02,0.00
2015,03,11,07,03,0.00
2015,03,11,07,04,0.00
2015,03,11,07,05,0.00
2015,03,11,07,06,0.00
2015,03,11,07,07,0.00
2015,03,11,07,08,0.00
2015,03,11,07,09,0.00
2015,03,11,07,10,0.00
2015,03,11,07,11,0.00
2015,03,11,07,12,0.00
2015,03,11,07,13,0.00
2015,03,11,07,14,0.00
2015,03,11,07,15,0.00
2015,03,11,07,16,0.00
2015,03,11,07,17,0.00
2015,03,11,07,18,0.00
2015,03,11,07,19,0.00
2015,03,11,07,20,0.00
2015,03,11,07,21,0.00
2015,03,11,07,22,0.00
2015,03,11,07,23,0.00
2015,03,11,07,24,0.00
2015,03,11,07,25,0.00
2015,03,11,07,26,0.00
2015,03,11,07,27,0.00
2015,03,11,07,28,0.00
2015,03,11,07,29,0.00
2015,03,11,07,30,0.00
2015,03,11,07,31,0.00
2015,03,11,07,32,0.00
2015,03,11,07,33,0.00
2015,03,11,07,34,0.00
2015,03,11,07,35,0.00
2015,03,11,07,36,0.00
2015,03,11,07,37,0.00
2015,03,11,07,38,0.00
2015,03,11,07,39,0.00
2015,03,11,07,40,0.00
2015,03,11,07,41,0.00
2015,03,11,07,42,0.00
2015,03,11,07,43,0.00
2015,03,11,07,44,0.00
2015,03,11,07,45,0.00
2015,03,11,07,46,0.00
2015,03,11,07,47,0.00
2015,03,11,07,48,0.00
2015,03,11,07,49,0.00
2015,03,11,07,50,0.00
2015,03,11,07,51,0.00
2015,03,11,07,52,0.00
2015,03,11,07,53,0.00
2015,03,11,07,54,0.00
2015,03,11,07,55,0.00
2015,03,11,07,56,3.50
2015,03,11,07,57,5.00
2015,03,11,07,58,5.00
2015,03,11,07,59,5.00
2015,03,11,08,00,5.00
2015,03,11,08,01,5.00
2015,03,11,08,02,6.20
2015,03,11,08,03,7.00
2015,03,11,08,04,7.00
2015,03,11,08,05,8.90
2015,03,11,08,06,9.40
2015,03,11,08,07,11.00
2015,03,11,08,08,11.40
2015,03,11,08,09,13.10
2015,03,11,08,10,16.80
2015,03,11,08,11,20.40
2015,03,11,08,12,21.00
2015,03,11,08,13,21.00
2015,03,11,08,14,21.00
2015,03,11,08,15,21.90
2015,03,11,08,16,23.00
2015,03,11,08,17,23.00
2015,03,11,08,18,24.60
2015,03,11,08,19,25.00
2015,03,11,08,20,25.00
2015,03,11,08,21,24.40
2015,03,11,08,22,23.00
2015,03,11,08,23,23.00
2015,03,11,08,24,24.40
2015,03,11,08,25,25.80
2015,03,11,08,26,26.20
2015,03,11,08,27,28.40
2015,03,11,08,28,30.00
2015,03,11,08,29,30.00
2015,03,11,08,30,30.00
2015,03,11,08,31,30.00
2015,03,11,08,32,30.00
2015,03,11,08,33,31.90
2015,03,11,08,34,32.20
2015,03,11,08,35,33.00
2015,03,11,08,36,35.70
2015,03,11,08,37,39.50
2015,03,11,08,38,40.00
2015,03,11,08,39,40.00
2015,03,11,08,40,41.90
2015,03,11,08,41,42.40
2015,03,11,08,42,44.70
2015,03,11,08,43,46.00
2015,03,11,08,44,44.90
2015,03,11,08,45,41.20
2015,03,11,08,46,39.20
2015,03,11,08,47,39.00
2015,03,11,08,48,39.80
2015,03,11,08,49,43.80
2015,03,11,08,50,47.00
2015,03,11,08,51,46.50
2015,03,11,08,52,46.70
2015,03,11,08,53,47.00
2015,03,11,08,54,46.70
2015,03,11,08,55,42.60
2015,03,11,08,56,36.30
2015,03,11,08,57,32.80
2015,03,11,08,58,28.90
2015,03,11,08,59,25.90
2015,03,11,09,00,25.90
2015,03,11,09,01,26.00
2015,03,11,09,02,25.80
2015,03,11,09,03,25.30
2015,03,11,09,04,26.00
2015,03,11,09,05,26.00
2015,03,11,09,06,25.30
2015,03,11,09,07,25.80
2015,03,11,09,08,31.00
2015,03,11,09,09,45.20
2015,03,11,09,10,63.10
2015,03,11,09,11,77.20
2015,03,11,09,12,82.10
2015,03,11,09,13,83.70
2015,03,11,09,14,88.80
2015,03,11,09,15,90.20
2015,03,11,09,16,82.20
2015,03,11,09,17,77.00
2015,03,11,09,18,79.70
2015,03,11,09,19,83.60
2015,03,11,09,20,85.40
2015,03,11,09,21,83.60
2015,03,11,09,22,79.40
2015,03,11,09,23,82.20
2015,03,11,09,24,79.00
2015,03,11,09,25,79.90
2015,03,11,09,26,84.00
2015,03,11,09,27,90.90
2015,03,11,09,28,94.70
2015,03,11,09,29,93.20
2015,03,11,09,30,93.50
2015,03,11,09,31,100.70
2015,03,11,09,32,117.50
2015,03,11,09,33,123.00
2015,03,11,09,34,127.90
2015,03,11,09,35,125.80
2015,03,11,09,36,118.20
2015,03,11,09,37,121.40
2015,03,11,09,38,122.00
2015,03,11,09,39,122.50
2015,03,11,09,40,122.60
2015,03,11,09,41,120.30
2015,03,11,09,42,114.90
2015,03,11,09,43,110.70
2015,03,11,09,44,103.80
2015,03,11,09,45,114.00
2015,03,11,09,46,118.00
2015,03,11,09,47,101.40
2015,03,11,09,48,78.30
2015,03,11,09,49,58.50
2015,03,11,09,50,51.50
2015,03,11,09,51,54.00
2015,03,11,09,52,62.40
2015,03,11,09,53,84.60
2015,03,11,09,54,118.70
2015,03,11,09,55,138.60
2015,03,11,09,56,136.20
2015,03,11,09,57,123.80
2015,03,11,09,58,104.50
2015,03,11,09,59,95.10
2015,03,11,10,00,91.00
2015,03,11,10,01,89.20
2015,03,11,10,02,96.40
2015,03,11,10,03,127.20
2015,03,11,10,04,134.40
2015,03,11,10,05,107.00
2015,03,11,10,06,84.10
2015,03,11,10,07,86.90
2015,03,11,10,08,88.00
2015,03,11,10,09,90.20
2015,03,11,10,10,105.40
2015,03,11,10,11,133.40
2015,03,11,10,12,142.40
2015,03,11,10,13,149.10
2015,03,11,10,14,149.60
2015,03,11,10,15,151.00
2015,03,11,10,16,163.30
2015,03,11,10,17,192.60
2015,03,11,10,18,180.30
2015,03,11,10,19,144.60
2015,03,11,10,20,133.90
2015,03,11,10,21,147.60
2015,03,11,10,22,147.90
2015,03,11,10,23,137.10
2015,03,11,10,24,128.60
2015,03,11,10,25,101.90
2015,03,11,10,26,127.20
2015,03,11,10,27,151.40
2015,03,11,10,28,178.50
2015,03,11,10,29,206.00
2015,03,11,10,30,209.10
2015,03,11,10,31,206.20
2015,03,11,10,32,181.10
2015,03,11,10,33,168.00
2015,03,11,10,34,173.10
2015,03,11,10,35,195.00
2015,03,11,10,36,203.10
2015,03,11,10,37,228.00
2015,03,11,10,38,223.00
2015,03,11,10,39,182.40
2015,03,11,10,40,154.00
2015,03,11,10,41,144.10
2015,03,11,10,42,160.30
2015,03,11,10,43,180.90
2015,03,11,10,44,181.10
2015,03,11,10,45,153.70
2015,03,11,10,46,135.90
2015,03,11,10,47,142.60
2015,03,11,10,48,157.90
2015,03,11,10,49,153.00
2015,03,11,10,50,137.80
2015,03,11,10,51,154.90
2015,03,11,10,52,170.00
2015,03,11,10,53,174.10
2015,03,11,10,54,179.20
2015,03,11,10,55,171.10
2015,03,11,10,56,162.70
2015,03,11,10,57,167.60
2015,03,11,10,58,188.70
2015,03,11,10,59,186.30
2015,03,11,11,00,183.10
2015,03,11,11,01,179.30
2015,03,11,11,02,179.00
2015,03,11,11,03,183.10
2015,03,11,11,04,150.60
2015,03,11,11,05,138.40
2015,03,11,11,06,149.20
2015,03,11,11,07,171.20
2015,03,11,11,08,177.60
2015,03,11,11,09,175.40
2015,03,11,11,10,173.10
2015,03,11,11,11,170.20
2015,03,11,11,12,159.90
2015,03,11,11,13,153.50
2015,03,11,11,14,150.20
2015,03,11,11,15,139.00
2015,03,11,11,16,125.20
2015,03,11,11,17,118.90
2015,03,11,11,18,114.80
2015,03,11,11,19,111.90
2015,03,11,11,20,111.00
2015,03,11,11,21,117.90
2015,03,11,11,22,120.20
2015,03,11,11,23,125.20
2015,03,11,11,24,142.20
2015,03,11,11,25,153.80
2015,03,11,11,26,160.90
2015,03,11,11,27,158.80
2015,03,11,11,28,146.30
2015,03,11,11,29,139.60
2015,03,11,11,30,147.40
2015,03,11,11,31,174.40
2015,03,11,11,32,211.80
2015,03,11,11,33,231.30
2015,03,11,11,34,241.20
2015,03,11,11,35,263.50
2015,03,11,11,36,263.70
2015,03,11,11,37,239.50
2015,03,11,11,38,224.90
2015,03,11,11,39,217.80
2015,03,11,11,40,219.50
2015,03,11,11,41,209.10
2015,03,11,11,42,220.20
2015,03,11,11,43,218.50
2015,03,11,11,44,214.40
2015,03,11,11,45,211.70
2015,03,11,11,46,194.10
2015,03,11,11,47,185.40
2015,03,11,11,48,179.30
2015,03,11,11,49,164.90
2015,03,11,11,50,158.00
2015,03,11,11,51,158.00
2015,03,11,11,52,157.00
2015,03,11,11,53,154.20
2015,03,11,11,54,150.10
2015,03,11,11,55,150.60
2015,03,11,11,56,153.30
2015,03,11,11,57,166.60
2015,03,11,11,58,186.70
2015,03,11,11,59,206.30
2015,03,11,12,00,217.40
2015,03,11,12,01,209.70
2015,03,11,12,02,225.20
2015,03,11,12,03,233.60
2015,03,11,12,04,235.40
2015,03,11,12,05,245.10
2015,03,11,12,06,211.50
2015,03,11,12,07,188.60
2015,03,11,12,08,167.50
2015,03,11,12,09,158.80
2015,03,11,12,10,169.60
2015,03,11,12,11,213.60
2015,03,11,12,12,271.70
2015,03,11,12,13,291.20
2015,03,11,12,14,287.00
2015,03,11,12,15,282.60
2015,03,11,12,16,265.80
2015,03,11,12,17,245.40
2015,03,11,12,18,237.00
2015,03,11,12,19,239.70
2015,03,11,12,20,246.00
2015,03,11,12,21,246.00
2015,03,11,12,22,249.70
2015,03,11,12,23,256.60
2015,03,11,12,24,275.50
2015,03,11,12,25,298.50
2015,03,11,12,26,307.60
2015,03,11,12,27,316.90
2015,03,11,12,28,310.30
2015,03,11,12,29,311.70
2015,03,11,12,30,323.50
2015,03,11,12,31,336.40
2015,03,11,12,32,345.40
2015,03,11,12,33,364.90
2015,03,11,12,34,373.10
2015,03,11,12,35,318.10
2015,03,11,12,36,267.00
2015,03,11,12,37,248.40
2015,03,11,12,38,250.10
2015,03,11,12,39,240.40
2015,03,11,12,40,243.30
2015,03,11,12,41,233.40
2015,03,11,12,42,225.70
2015,03,11,12,43,219.50
2015,03,11,12,44,206.10
2015,03,11,12,45,217.90
2015,03,11,12,46,212.60
2015,03,11,12,47,200.50
2015,03,11,12,48,212.60
2015,03,11,12,49,234.60
2015,03,11,12,50,245.40
2015,03,11,12,51,233.20
2015,03,11,12,52,230.20
2015,03,11,12,53,231.40
2015,03,11,12,54,226.60
2015,03,11,12,55,221.00
2015,03,11,12,56,218.10
2015,03,11,12,57,210.00
2015,03,11,12,58,196.80
2015,03,11,12,59,184.40
2015,03,11,13,00,178.80
2015,03,11,13,01,178.00
2015,03,11,13,02,180.20
2015,03,11,13,03,188.80
2015,03,11,13,04,206.10
2015,03,11,13,05,226.20
2015,03,11,13,06,233.10
2015,03,11,13,07,225.70
2015,03,11,13,08,218.20
2015,03,11,13,09,210.20
2015,03,11,13,10,208.10
2015,03,11,13,11,217.30
2015,03,11,13,12,227.80
2015,03,11,13,13,220.70
2015,03,11,13,14,218.40
2015,03,11,13,15,218.20
2015,03,11,13,16,214.00
2015,03,11,13,17,216.40
2015,03,11,13,18,223.00
2015,03,11,13,19,226.60
2015,03,11,13,20,223.20
2015,03,11,13,21,221.00
2015,03,11,13,22,213.90
2015,03,11,13,23,220.10
2015,03,11,13,24,231.50
2015,03,11,13,25,246.00
2015,03,11,13,26,256.70
2015,03,11,13,27,265.10
2015,03,11,13,28,282.80
2015,03,11,13,29,307.30
2015,03,11,13,30,323.20
2015,03,11,13,31,319.90
2015,03,11,13,32,311.10
2015,03,11,13,33,310.70
2015,03,11,13,34,335.00
2015,03,11,13,35,318.60
2015,03,11,13,36,302.70
2015,03,11,13,37,281.00
2015,03,11,13,38,253.70
2015,03,11,13,39,243.90
2015,03,11,13,40,248.90
2015,03,11,13,41,277.00
2015,03,11,13,42,288.00
2015,03,11,13,43,262.60
2015,03,11,13,44,283.40
2015,03,11,13,45,315.40
2015,03,11,13,46,325.00
2015,03,11,13,47,410.80
2015,03,11,13,48,445.80
2015,03,11,13,49,712.00
2015,03,11,13,50,773.20
2015,03,11,13,51,916.00
2015,03,11,13,52,916.00
2015,03,11,13,53,568.90
2015,03,11,13,54,401.00
2015,03,11,13,55,377.80
2015,03,11,13,56,359.20
2015,03,11,13,57,360.70
2015,03,11,13,58,313.30
2015,03,11,13,59,287.50
2015,03,11,14,00,271.70
2015,03,11,14,01,284.20
2015,03,11,14,02,312.20
2015,03,11,14,03,281.20
2015,03,11,14,04,253.80
2015,03,11,14,05,243.60
2015,03,11,14,06,247.20
2015,03,11,14,07,260.50
2015,03,11,14,08,283.50
2015,03,11,14,09,314.50
2015,03,11,14,10,333.50
2015,03,11,14,11,415.80
2015,03,11,14,12,442.40
2015,03,11,14,13,427.00
2015,03,11,14,14,427.00
2015,03,11,14,15,427.00
2015,03,11,14,16,770.00
2015,03,11,14,17,752.00
2015,03,11,14,18,608.00
2015,03,11,14,19,608.00
2015,03,11,14,20,608.00
2015,03,11,14,21,608.00
2015,03,11,14,22,540.80
2015,03,11,14,23,525.80
2015,03,11,14,24,526.00
2015,03,11,14,25,526.00
2015,03,11,14,26,741.70
2015,03,11,14,27,985.40
2015,03,11,14,28,990.00
2015,03,11,14,29,990.00
2015,03,11,14,30,961.70
2015,03,11,14,31,707.00
2015,03,11,14,32,824.00
2015,03,11,14,33,1097.00
2015,03,11,14,34,1097.00
2015,03,11,14,35,1085.20
2015,03,11,14,36,1015.50
2015,03,11,14,37,1004.00
2015,03,11,14,38,899.20
2015,03,11,14,39,476.60
2015,03,11,14,40,408.00
2015,03,11,14,41,408.00
2015,03,11,14,42,408.00
2015,03,11,14,43,408.00
2015,03,11,14,44,407.50
2015,03,11,14,45,421.00
2015,03,11,14,46,414.60
2015,03,11,14,47,392.00
2015,03,11,14,48,449.10
2015,03,11,14,49,492.00
2015,03,11,14,50,389.10
2015,03,11,14,51,457.50
2015,03,11,14,52,397.60
2015,03,11,14,53,376.30
2015,03,11,14,54,318.00
2015,03,11,14,55,267.10
2015,03,11,14,56,236.00
2015,03,11,14,57,237.30
2015,03,11,14,58,251.80
2015,03,11,14,59,348.30
2015,03,11,15,00,266.90
2015,03,11,15,01,229.80
2015,03,11,15,02,227.00
2015,03,11,15,03,279.30
2015,03,11,15,04,282.30
2015,03,11,15,05,291.80
2015,03,11,15,06,280.80
2015,03,11,15,07,298.70
2015,03,11,15,08,350.40
2015,03,11,15,09,440.00
2015,03,11,15,10,485.00
2015,03,11,15,11,367.40
2015,03,11,15,12,338.00
2015,03,11,15,13,338.00
2015,03,11,15,14,338.00
2015,03,11,15,15,323.60
2015,03,11,15,16,306.00
2015,03,11,15,17,304.50
2015,03,11,15,18,295.50
2015,03,11,15,19,316.20
2015,03,11,15,20,329.80
2015,03,11,15,21,305.80
2015,03,11,15,22,301.10
2015,03,11,15,23,264.30
2015,03,11,15,24,249.60
2015,03,11,15,25,238.80
2015,03,11,15,26,233.90
2015,03,11,15,27,229.80
2015,03,11,15,28,227.80
2015,03,11,15,29,222.80
2015,03,11,15,30,220.00
2015,03,11,15,31,220.00
2015,03,11,15,32,205.10
2015,03,11,15,33,186.10
2015,03,11,15,34,177.00
2015,03,11,15,35,165.30
2015,03,11,15,36,161.30
2015,03,11,15,37,173.00
2015,03,11,15,38,190.80
2015,03,11,15,39,203.90
2015,03,11,15,40,198.10
2015,03,11,15,41,176.30
2015,03,11,15,42,146.60
2015,03,11,15,43,117.00
2015,03,11,15,44,96.00
2015,03,11,15,45,85.60
2015,03,11,15,46,84.00
2015,03,11,15,47,85.50
2015,03,11,15,48,78.90
2015,03,11,15,49,67.90
2015,03,11,15,50,59.80
2015,03,11,15,51,54.90
2015,03,11,15,52,54.00
2015,03,11,15,53,55.60
2015,03,11,15,54,60.40
2015,03,11,15,55,69.30
2015,03,11,15,56,87.10
2015,03,11,15,57,114.20
2015,03,11,15,58,146.40
2015,03,11,15,59,178.40
2015,03,11,16,00,207.70
2015,03,11,16,01,241.90
2015,03,11,16,02,276.50
2015,03,11,16,03,311.50
2015,03,11,16,04,353.10
2015,03,11,16,05,356.30
2015,03,11,16,06,309.40
2015,03,11,16,07,274.80
2015,03,11,16,08,247.40
2015,03,11,16,09,234.30
2015,03,11,16,10,222.80
2015,03,11,16,11,203.60
2015,03,11,16,12,184.30
2015,03,11,16,13,169.30
2015,03,11,16,14,156.90
2015,03,11,16,15,147.60
2015,03,11,16,16,138.60
2015,03,11,16,17,123.40
2015,03,11,16,18,106.00
2015,03,11,16,19,89.30
2015,03,11,16,20,78.80
2015,03,11,16,21,78.60
2015,03,11,16,22,83.70
2015,03,11,16,23,84.00
2015,03,11,16,24,83.10
2015,03,11,16,25,81.00
2015,03,11,16,26,78.80
2015,03,11,16,27,76.30
2015,03,11,16,28,68.40
2015,03,11,16,29,63.70
2015,03,11,16,30,77.60
2015,03,11,16,31,86.40
2015,03,11,16,32,93.80
2015,03,11,16,33,102.50
2015,03,11,16,34,108.40
2015,03,11,16,35,107.30
2015,03,11,16,36,104.50
2015,03,11,16,37,96.70
2015,03,11,16,38,88.60
2015,03,11,16,39,79.80
2015,03,11,16,40,71.10
2015,03,11,16,41,62.00
2015,03,11,16,42,56.70
2015,03,11,16,43,56.30
2015,03,11,16,44,61.30
2015,03,11,16,45,70.00
2015,03,11,16,46,82.80
2015,03,11,16,47,96.90
2015,03,11,16,48,109.20
2015,03,11,16,49,119.50
2015,03,11,16,50,128.00
2015,03,11,16,51,127.80
2015,03,11,16,52,125.10
2015,03,11,16,53,118.80
2015,03,11,16,54,116.00
2015,03,11,16,55,116.00
2015,03,11,16,56,116.00
2015,03,11,16,57,91.80
2015,03,11,16,58,85.40
2015,03,11,16,59,81.20
2015,03,11,17,00,75.80
2015,03,11,17,01,71.80
2015,03,11,17,02,68.10
2015,03,11,17,03,63.80
2015,03,11,17,04,60.00
2015,03,11,17,05,57.60
2015,03,11,17,06,56.00
2015,03,11,17,07,56.00
2015,03,11,17,08,56.00
2015,03,11,17,09,56.00
2015,03,11,17,10,53.60
2015,03,11,17,11,49.10
2015,03,11,17,12,45.20
2015,03,11,17,13,41.00
2015,03,11,17,14,37.30
2015,03,11,17,15,33.30
2015,03,11,17,16,29.20
2015,03,11,17,17,25.60
2015,03,11,17,18,21.00
2015,03,11,17,19,18.80
2015,03,11,17,20,18.00
2015,03,11,17,21,18.00
2015,03,11,17,22,18.00
2015,03,11,17,23,18.00